Regional Weather Roundup
Issued by NWS Grand Forks, ND

Home | Current Version | Previous Version | Text Only | Print | Product List | Glossary Off
Versions: 1 2 3 4 5 6 7 8 9 10 11 12 13 14 15 16 17 18 19 20 21 22 23 24 25 26 27 28 29 30 31 32 33 34 35 36 37 38 39 40 41 42 43 44 45 46 47 48 49 50

000
ASUS43 KFGF 281531
RWRFGF
PRAIRIE TO PINES  WEATHER ROUNDUP
NATIONAL WEATHER SERVICE EASTERN NORTH DAKOTA/GRAND FORKS ND
1000 AM CDT FRI JUL 28 2017

 **SATELLITE DATA USED TO AUGMENT SKY COVER AT AUTOMATED STATIONS**
 *****  WEATHER ACROSS EASTERN NORTH DAKOTA  *****

CITY           SKY/WX    TMP DP  RH WIND       PRES   REMARKS
GRAND FORKS    FAIR      77  64  64 S5        30.08F
GRAND FRKS AFB FAIR      76  62  61 S6        30.09F
DEVILS LAKE    FAIR      77  61  57 S14       30.09F
FARGO          FAIR      77  62  59 S6        30.09S
WAHPETON ARPT  FAIR      73  63  68 SE3       30.10S
$$

 ***** WEATHER ACROSS CENTRAL AND WESTERN NORTH DAKOTA  *****

CITY           SKY/WX    TMP DP  RH WIND       PRES   REMARKS
BISMARCK       FAIR      77  63  61 SE12      30.05S
MINOT          FAIR      80  61  52 SE8       30.02S
JAMESTOWN      FAIR      77  62  59 S8        30.09S
MINOT AFB      FAIR      79  61  53 S12       30.01S
GARRISON       NOT AVBL
WILLISTON      FAIR      74  62  66 S6        30.00F
DICKINSON      FAIR      75  60  59 S16       30.02S
HETTINGER      FAIR      74  58  57 S13       30.05S
$$

 *****  OTHER AIRPORT OBSERVATIONS IN OUR AREA  *****

CITY           SKY/WX    TMP DP  RH WIND       PRES   REMARKS
WALHALLA       NOT AVBL
GRAFTON AIRPOR FAIR      77  61  57 S9        30.10S
VALLEY CITY AR FAIR      77  63  61 S9G15     30.12S
CANDO          NOT AVBL
CAVALIER APRT  FAIR      75  64  69 S6        30.07F
GWINNER        SUNNY     79  63  57 CALM      30.10S
SHEYENNE NWR     N/A     79  64  59 S2        29.95S
ROLLA            N/A     73  64  73 S13       30.08S
 ***** THE ABOVE OBSERVATIONS ARE NON NWS ARE NOT QUALITY
       CONTROLLED AND MAY MIS-REPORT RAIN FOR SNOW...
$$

  *****  WEATHER ACROSS NORTHERN MINNESOTA  *****

CITY           SKY/WX    TMP DP  RH WIND       PRES   REMARKS
FLAG ISLAND    FAIR      77  66  69 S3        30.09S
WARROAD        FAIR      75  68  78 CALM      30.10F
ROSEAU         FAIR      75  66  73 W3        30.10S
HALLOCK        FAIR      75  63  64 S6        30.08S
THF RVR FALLS  FAIR      76  61  59 SE5       30.12F
BAUDETTE       FAIR      76  62  62 SW3       30.11S
WASKISH        PTSUNNY   75  64  69 CALM      30.12S
CROOKSTON      FAIR      75  63  64 SW6       30.10S
STEPHEN NDAWN    N/A     75  64  69 S5          N/A
GREENBUSH NDAW   N/A     77  63  61 S3          N/A
$$
  *****  WEATHER ACROSS CENTRAL AND WEST MINNESOTA  *****

CITY           SKY/WX    TMP DP  RH WIND       PRES   REMARKS
FOSSTON        FAIR      75  63  64 CALM      30.12S
BEMIDJI        FAIR      75  61  60 S5        30.12F
PARK RAPIDS    FAIR      75  64  68 CALM      30.13S
ELBOW LAKE     FAIR      75  62  63 CALM      30.11S
WADENA         FAIR      73  63  68 CALM      30.12S
DETROIT LAKES  FAIR      75  63  64 SW5       30.13S
MOORHEAD       FAIR      75  63  64 SE5       30.10S
FERGUS FALLS   FAIR      75  64  69 S6        30.09S
MORRIS MN      FAIR      79  61  53 SE5       30.09S
STAPLES        FAIR      73  61  64 SE3       30.13S
$$
  *****  WEATHER ELSEWHERE ACROSS MINNESOTA  *****

CITY           SKY/WX    TMP DP  RH WIND       PRES   REMARKS
DULUTH         FAIR      71  59  65 SE6       30.15S
INTRNTL FALLS  FAIR      76  62  62 W3        30.12S
ELY            FAIR      72  57  60 CALM      30.15S
CLOQUET        FAIR      72  57  60 S5        30.14S
WHEATON        FAIR      73  63  68 CALM      30.11S
BRAINERD       FAIR      73  63  70 S5        30.13S
HIBBING        FAIR      71  55  56 E3        30.15S
ALEXANDRIA     FAIR      75  63  66 SE3       30.13S
SAINT CLOUD    FAIR      73  62  68 E5        30.12S
MINNEAPOLIS    FAIR      76  63  64 VRB5      30.10S
$$

  *****  WEATHER ACROSS SOUTH DAKOTA  *****

CITY           SKY/WX    TMP DP  RH WIND       PRES   REMARKS
SIOUX FALLS    PTSUNNY   74  64  71 CALM      30.10S
BROOKINGS      FAIR      69  65  86 CALM      30.12R
WATERTOWN      FAIR      74  60  61 SE7       30.11R
HURON          LGT RAIN  70  65  84 CALM      30.10R
SISSETON         N/A     76  63  64 CALM      30.08S
ABERDEEN       FAIR      77  64  64 S8        30.08S
MITCHELL       FAIR      72  65  78 S3        30.10R
PIERRE         FAIR      76  61  59 SE16      30.04S
MOBRIDGE       FAIR      76  64  66 SE14      30.03S
RAPID CITY     FAIR      74  60  61 CALM      30.06S
$$

  *****  SOME WEATHER IN NEARBY STATES *****

CITY           SKY/WX    TMP DP  RH WIND       PRES   REMARKS
GLASGOW MT     FAIR      72  55  55 SE10      29.97R
GREAT FALLS MT FAIR      76  41  28 N6        30.10S
CHEYENNE WY    FAIR      66  58  75 CALM      30.22F
SCOTTSBLUFF NE CLOUDY    70  61  73 CALM      30.11S
OMAHA NE       PTSUNNY   74  66  76 CALM      30.06F
DES MOINES IA  PTSUNNY   76  59  55 VRB3      30.05S
DAVENPORT IA   FAIR      72  58  61 NE10      30.05S
CHICAGO IL     PTSUNNY   75  62  64 N17G24    29.99S
EAU CLAIRE WI  FAIR      73  61  65 E7        30.11S
LA CROSSE WI   FAIR      74  62  66 E5        30.09S
$$

  *****  SOME NATIONAL WEATHER *****

CITY           SKY/WX    TMP DP  RH WIND       PRES   REMARKS
LA GUARDIA NY  PTSUNNY   78  70  76 NE7       29.85S
RALEIGH NC     PTSUNNY   87  75  67 SW9       29.86F HX  96
ATLANTA GA     PTSUNNY   84  74  71 W12       29.95R HX  91
NEW ORLEANS LA PTSUNNY   87  76  69 W9        29.99S HX  97
OKLAHOMA CITY  PTSUNNY   81  74  79 N8        29.96S
ALBUQUERQUE NM PTSUNNY   69  63  81 VRB3      30.23S
SALT LAKE CITY PTSUNNY   75  58  55 SW5       30.12R
LOS ANGELES CA FAIR      69  64  84 VRB3      29.92R
BOISE ID       FAIR      74  47  38 CALM      30.05S
SEATTLE WA     PTSUNNY   61  53  75 NE3       30.13R
$$

*** WEATHER ACROSS MANITOBA...SASKATCHEWAN AND ONTARIO ***
                ***ONTARIO***

CITY           SKY/WX    TMP DP  RH WIND       PRES   REMARKS
GERALDTON      MOSUNNY   73  52  46 VRB2      30.14S
THUNDER BAY    MOSUNNY   73  61  64 CALM      30.13S
SIOUX LOOKOUT  SUNNY     77  61  57 SW5       30.12S
TORONTO        PTSUNNY   68  54  60 NE12      30.00R
BIG TROUT LK   SUNNY     75  61  60 W6        29.99S
PICKLE LAKE    MOSUNNY   79  55  44 W9        30.09S
DRYDEN         SUNNY     77  59  53 VRB2      30.12F
KENORA         SUNNY     77  59  53 SW6       30.11S
$$
                *** MANITOBA***

CITY           SKY/WX    TMP DP  RH WIND       PRES   REMARKS
BRANDON        PTSUNNY   77  63  61 S7        30.03F
DAUPHIN        SUNNY     77  64  65 SW6       29.97F
ISLAND LAKE    MOSUNNY   77  63  61 SW10      29.97F
PILOT MOUND      N/A    N/A N/A N/A S12         N/A
THE PAS        MOSUNNY   79  63  57 S13       29.86F
THOMPSON       PTSUNNY   77  61  57 SW10      29.84F
WINNIPEG       SUNNY     77  63  61 S8        30.06S
LYNN LAKE      SUNNY     75  61  60 W8        29.75F
CHURCHILL      PTSUNNY   64  59  82 S14       29.74F
GILLAM         MOSUNNY   79  63  57 SW9       29.82F
$$
                ***SASKATCHEWAN***

CITY           SKY/WX    TMP DP  RH WIND       PRES   REMARKS
ESTEVAN        MOSUNNY   75  64  69 SE9       30.00S
KINDERSLEY     MOSUNNY   70  55  60 NW12G18   29.96R
LLOYDMINSTER   MOSUNNY   63  57  82 NW8       29.97R
PRINCE ALBERT  PTSUNNY   68  63  83 CALM      29.85F
REGINA         MOSUNNY   75  59  57 S17       29.94F
YORKTON        SUNNY     72  61  68 S9        29.96F
N. BATTLEFORD  SUNNY     70  57  64 NW16      29.95R
LA RONGE       PTSUNNY   68  63  83 S3        29.78R
SASKATOON      PTSUNNY   68  61  77 S5        29.87R
SWIFT CURRENT  PTSUNNY   70  52  52 W15G22    29.93R
$$
NOTE: THESE ARE AUTOMATED STATIONS WITH LIMITED QUALITY CONTROL
      "FAIR" INDICATES FEW OR NO CLOUDS BELOW 12,000 FEET WITH NO
      SIGNIFICANT WEATHER AND/OR OBSTRUCTIONS TO VISIBILITY.
      SKY/WX - SKY CONDITION AND SIGNIFICANT WEATHER.
      TMP - AIR TEMPERATURE.    DP   - DEWPOINT TEMPERATURE.
      RH  - RELATIVE HUMIDITY.  PRES - PRESSURE.
      HX  - HEAT INDEX.         WCI  - WIND CHILL INDEX.
$




USA.gov is the U.S. government's official web portal to all federal, state and local government web resources and services.